Atka, AK

10:19 AM HST on November 17, 2017 (GMT -1000)
Atka

Weather History for PAAK - March, 2014

Change the Weather History Date:

Monday, March 17, 2014

  Actual Average (PADK) Record (PADK)
Temperature  
Mean Temperature 34 °F -  
Max Temperature 37 °F 38 °F 46 °F (2011)
Min Temperature 30 °F 30 °F 17 °F (2012)
Degree Days  
Heating Degree Days 32    
Moisture  
Dew Point 27 °F    
Average Humidity 72    
Maximum Humidity 87    
Minimum Humidity 56    
Precipitation  
Precipitation 0.00 in - - ()
Sea Level Pressure  
Sea Level Pressure 29.76 in    
Wind  
Wind Speed 21 mph (West)    
Max Wind Speed 34 mph    
Max Gust Speed 44 mph    
Visibility 8 miles    
Events      
Averages and records for this station are not official NWS values.
T = Trace of Precipitation, MM = Missing Value Source: NWS Daily Summary

Daily Weather History Graph

Daily Weather History Graph

Search for Another Location

Airport or City:

Trip Planner

Search our weather history database for the weather conditions in past years. The results will help you decide how hot, cold, wet, or windy it might be!

Date:

Astronomy

Mar. 17, 2014 Rise Set
Actual Time 8:45 AM HDT 8:45 PM HDT
Civil Twilight 8:11 AM HDT 9:19 PM HDT
Nautical Twilight 7:32 AM HDT 9:59 PM HDT
Astronomical Twilight 6:51 AM HDT 10:40 PM HDT
Moon 10:31 PM HDT 8:58 AM HDT
Length of Visible Light 13h 07m
Length of Day
11h 59m
Full, 99% of the Moon is Illuminated
Mar 17
Full
Mar 23
Last Quarter
Mar 30
New
Apr 6
First Quarter
Apr 14
Full

Hourly Weather History & Observations

Time (HDT) Temp. Windchill Dew Point Humidity Pressure Visibility Wind Dir Wind Speed Gust Speed Precip Events Conditions
12:16 AM 35.6 °F 21.7 °F 30.2 °F 81% 29.30 in 3.0 mi West 34.5 mph 41.4 mph N/A   Overcast
12:36 AM 35.6 °F 24.0 °F 32.0 °F 87% 29.32 in 2.0 mi West 23.0 mph 43.7 mph N/A   Overcast
12:56 AM 35.6 °F 21.7 °F 30.2 °F 81% 29.33 in 6.0 mi West 34.5 mph 40.3 mph N/A   Mostly Cloudy
1:16 AM 35.6 °F 22.5 °F 28.4 °F 75% 29.34 in 10.0 mi West 29.9 mph 40.3 mph N/A   Overcast
1:36 AM 35.6 °F 23.0 °F 28.4 °F 75% 29.36 in 6.0 mi West 27.6 mph 39.1 mph N/A   Overcast
1:56 AM 35.6 °F 22.5 °F 28.4 °F 75% 29.37 in 10.0 mi West 29.9 mph 41.4 mph N/A   Mostly Cloudy
2:16 AM 35.6 °F 23.2 °F 28.4 °F 75% 29.38 in 10.0 mi West 26.5 mph 36.8 mph N/A   Overcast
2:36 AM 35.6 °F 22.5 °F 28.4 °F 75% 29.39 in 7.0 mi West 29.9 mph 42.6 mph N/A   Mostly Cloudy
2:56 AM 35.6 °F 22.3 °F 28.4 °F 75% 29.41 in 3.0 mi West 31.1 mph 40.3 mph N/A   Overcast
3:16 AM 35.6 °F 23.2 °F 30.2 °F 81% 29.42 in 3.0 mi WSW 26.5 mph 41.4 mph N/A   Overcast
3:36 AM 35.6 °F 22.7 °F 30.2 °F 81% 29.42 in 5.0 mi West 28.8 mph 36.8 mph N/A   Overcast
3:56 AM 35.6 °F 21.9 °F 30.2 °F 81% 29.44 in 2.0 mi West 33.4 mph 42.6 mph N/A   Overcast
4:16 AM 35.6 °F 22.5 °F 28.4 °F 75% 29.44 in 8.0 mi West 29.9 mph 36.8 mph N/A   Mostly Cloudy
4:36 AM 33.8 °F 20.1 °F 30.2 °F 87% 29.46 in 1.0 mi West 29.9 mph 41.4 mph N/A   Overcast
4:56 AM 35.6 °F 23.2 °F 30.2 °F 81% 29.48 in 10.0 mi West 26.5 mph 34.5 mph N/A   Overcast
5:16 AM 35.6 °F 23.0 °F 28.4 °F 75% 29.50 in 4.0 mi West 27.6 mph 35.7 mph N/A   Mostly Cloudy
5:36 AM 35.6 °F 23.7 °F 28.4 °F 75% 29.51 in 5.0 mi West 24.2 mph 31.1 mph N/A   Overcast
5:56 AM 35.6 °F 24.5 °F 28.4 °F 75% 29.52 in 9.0 mi West 20.7 mph 29.9 mph N/A   Mostly Cloudy
6:16 AM 33.8 °F 21.6 °F 28.4 °F 81% 29.54 in 5.0 mi West 23.0 mph 27.6 mph N/A   Mostly Cloudy
6:36 AM 33.8 °F 22.2 °F 28.4 °F 81% 29.56 in 10.0 mi West 20.7 mph 27.6 mph N/A   Overcast
6:56 AM 33.8 °F 22.5 °F 28.4 °F 81% 29.57 in 10.0 mi West 19.6 mph 26.5 mph N/A   Overcast
7:16 AM 35.6 °F 25.5 °F 28.4 °F 75% 29.58 in 10.0 mi West 17.3 mph 26.5 mph N/A   Overcast
7:36 AM 35.6 °F 25.9 °F 26.6 °F 70% 29.59 in 10.0 mi WNW 16.1 mph 28.8 mph N/A   Mostly Cloudy
7:56 AM 33.8 °F 23.5 °F 26.6 °F 75% 29.62 in 10.0 mi NW 16.1 mph - N/A   Mostly Cloudy
8:16 AM 33.8 °F 24.8 °F 26.6 °F 75% 29.63 in 10.0 mi WNW 12.7 mph - N/A   Overcast
8:36 AM 35.6 °F 25.2 °F 26.6 °F 70% 29.64 in 10.0 mi WNW 18.4 mph 27.6 mph N/A   Overcast
8:56 AM 33.8 °F 21.6 °F 24.8 °F 70% 29.66 in 10.0 mi WNW 23.0 mph 27.6 mph N/A   Mostly Cloudy
9:16 AM 35.6 °F 24.0 °F 24.8 °F 65% 29.68 in 10.0 mi WNW 23.0 mph 31.1 mph N/A   Mostly Cloudy
9:36 AM 35.6 °F 24.0 °F 24.8 °F 65% 29.69 in 10.0 mi WNW 23.0 mph 29.9 mph N/A   Mostly Cloudy
9:56 AM 35.6 °F 25.5 °F 24.8 °F 65% 29.71 in 10.0 mi WNW 17.3 mph - N/A   Overcast
10:16 AM 33.8 °F 24.3 °F 24.8 °F 70% 29.73 in 10.0 mi NW 13.8 mph 21.9 mph N/A   Overcast
10:36 AM 35.6 °F 27.1 °F 24.8 °F 65% 29.75 in 10.0 mi NW 12.7 mph - N/A   Overcast
10:56 AM 35.6 °F 27.1 °F 24.8 °F 65% 29.76 in 10.0 mi WNW 12.7 mph 17.3 mph N/A   Overcast
11:16 AM 35.6 °F 26.6 °F 21.2 °F 56% 29.78 in 10.0 mi WNW 13.8 mph 21.9 mph N/A   Overcast
11:36 AM 35.6 °F 27.5 °F 21.2 °F 56% 29.79 in 10.0 mi WNW 11.5 mph - N/A   Overcast
11:56 AM 35.6 °F 26.6 °F 23.0 °F 60% 29.81 in 10.0 mi WNW 13.8 mph 17.3 mph N/A   Overcast
12:16 PM 35.6 °F 27.1 °F 24.8 °F 65% 29.82 in 10.0 mi WNW 12.7 mph - N/A   Overcast
12:36 PM 35.6 °F 26.2 °F 24.8 °F 65% 29.84 in 10.0 mi NW 15.0 mph - N/A   Overcast
12:56 PM 37.4 °F 28.5 °F 26.6 °F 65% 29.85 in 10.0 mi NW 15.0 mph - N/A   Mostly Cloudy
1:16 PM 35.6 °F 25.2 °F 26.6 °F 70% 29.87 in 6.0 mi West 18.4 mph 23.0 mph N/A   Overcast
1:36 PM 35.6 °F 28.0 °F 26.6 °F 70% 29.88 in 10.0 mi WNW 10.4 mph - N/A   Mostly Cloudy
1:56 PM 35.6 °F 27.5 °F 26.6 °F 70% 29.89 in 10.0 mi WNW 11.5 mph - N/A   Mostly Cloudy
2:16 PM 37.4 °F 29.8 °F 26.6 °F 65% 29.90 in 10.0 mi NW 11.5 mph - N/A   Mostly Cloudy
2:36 PM 37.4 °F 29.8 °F 24.8 °F 60% 29.90 in 10.0 mi NW 11.5 mph - N/A   Overcast
2:56 PM 35.6 °F 26.2 °F 26.6 °F 70% 29.92 in 10.0 mi West 15.0 mph 19.6 mph N/A   Overcast
3:16 PM 35.6 °F 26.6 °F 28.4 °F 75% 29.93 in 3.0 mi West 13.8 mph - N/A   Mostly Cloudy
3:36 PM 33.8 °F 25.3 °F 28.4 °F 81% 29.94 in 2.5 mi West 11.5 mph - N/A   Mostly Cloudy
3:56 PM 35.6 °F 25.9 °F 28.4 °F 75% 29.94 in 10.0 mi West 16.1 mph - N/A   Mostly Cloudy
4:16 PM 35.6 °F 27.5 °F 28.4 °F 75% 29.95 in 8.0 mi WNW 11.5 mph - N/A   Mostly Cloudy
4:36 PM 33.8 °F 27.7 °F 28.4 °F 81% 29.96 in 10.0 mi NW 6.9 mph - N/A   Overcast
4:56 PM 33.8 °F 27.0 °F 28.4 °F 81% 29.97 in 7.0 mi West 8.1 mph - N/A   Overcast
5:16 PM 35.6 °F 28.0 °F 26.6 °F 70% 29.97 in 8.0 mi WNW 10.4 mph 18.4 mph N/A   Overcast
5:36 PM 35.6 °F 27.5 °F 26.6 °F 70% 29.98 in 10.0 mi WNW 11.5 mph - N/A   Overcast
5:56 PM 35.6 °F 28.6 °F 26.6 °F 70% 29.99 in 10.0 mi WNW 9.2 mph - N/A   Overcast
6:16 PM 35.6 °F 28.6 °F 24.8 °F 65% 30.00 in 10.0 mi West 9.2 mph - N/A   Overcast
6:36 PM 35.6 °F 27.1 °F 24.8 °F 65% 30.01 in 10.0 mi WSW 12.7 mph - N/A   Overcast
6:56 PM 35.6 °F 28.0 °F 24.8 °F 65% 30.03 in 10.0 mi West 10.4 mph - N/A   Overcast
7:16 PM 35.6 °F 28.6 °F 24.8 °F 65% 30.04 in 10.0 mi West 9.2 mph - N/A   Overcast
7:36 PM 35.6 °F 28.6 °F 24.8 °F 65% 30.04 in 10.0 mi West 9.2 mph - N/A   Overcast
7:56 PM 35.6 °F 28.0 °F 24.8 °F 65% 30.04 in 10.0 mi West 10.4 mph - N/A   Overcast
8:16 PM 35.6 °F 29.2 °F 24.8 °F 65% 30.05 in 10.0 mi WSW 8.1 mph - N/A   Overcast
8:36 PM 35.6 °F 29.2 °F 24.8 °F 65% 30.06 in 10.0 mi WSW 8.1 mph - N/A   Overcast
8:56 PM 33.8 °F 27.7 °F 24.8 °F 70% 30.07 in 10.0 mi SW 6.9 mph - N/A   Overcast
9:16 PM 33.8 °F 29.6 °F 24.8 °F 70% 30.07 in 10.0 mi SW 4.6 mph - N/A   Overcast
9:36 PM 33.8 °F - 24.8 °F 70% 30.07 in 10.0 mi Calm Calm - N/A   Overcast
9:56 PM 33.8 °F 30.8 °F 24.8 °F 70% 30.07 in 10.0 mi West 3.5 mph - N/A   Overcast
10:16 PM 32.0 °F 28.7 °F 24.8 °F 75% 30.07 in 10.0 mi SSW 3.5 mph - N/A   Scattered Clouds
10:36 PM 32.0 °F - 24.8 °F 75% 30.08 in 10.0 mi Calm Calm - N/A   Clear
10:56 PM 30.2 °F 26.7 °F 23.0 °F 75% 30.08 in 10.0 mi West 3.5 mph 26.5 mph N/A   Scattered Clouds
11:16 PM 30.2 °F - 23.0 °F 75% 30.09 in 10.0 mi Calm Calm - N/A   Mostly Cloudy
11:36 PM 30.2 °F - 23.0 °F 75% 30.09 in 10.0 mi Calm Calm - N/A   Partly Cloudy
11:56 PM 30.2 °F - 21.2 °F 69% 30.09 in 10.0 mi Calm Calm - N/A   Partly Cloudy